Location: Newark
(30.1000°N, 109.4667°E)
Time: 03:23:17
(UTC+00:00)

SR - Pass Details

Date: 20 February 2020
Orbit: 578 x 878 km, 66.7° (Epoch: 04 April)

Event Time Altitude Azimuth Distance (km) Brightness Sun altitude
Rises 18:11:30 0° 330° (NNW) 3,194 - -64.0°
Reaches altitude 10° 18:14:01 10° 327° (NNW) 2,217 - -63.6°
Maximum altitude 18:18:56 58° 249° (WSW) 786 - -62.8°
Drops below altitude 10° 18:23:25 10° 170° (S) 2,021 - -62.0°
Sets 18:25:37 0° 166° (SSE) 2,887 - -61.7°
